Theta_e
312 316 317 318 317 316 316 315 317 314 312 314 316 316 315 307 306 306 304 302 301 303 305 306 307 311 317 320 320 322 321 321 322 322 322 322 321 320 318 314 314 315 315 316
312 315 317 313 313 313 313 315 316 313 311 312 315 315 314 307 307 306 304 302 301 300 302 305 307 309 311 313 315 317 317 318 318 316 314 312 310 308 308 308 310 310 311 312
316 315 311 311 311 312 313 315 316 316 312 311 312 316 312 305 304 302 301 301 301 301 301 302 304 305 306 306 306 306 306 306 306 305 306 306 305 306 306 306 305 305 305 305
313 311 310 311 312 312 315 311 312 312 314 319 310 322 314 308 306 303 301 301 300 299 300 301 302 304 304 304 303 303 303 303 303 304 304 304 304 304 303 302 302 302 302 301
315 311 312 314 313 311 316 311 312 312 314 314 313 316 318 307 308 305 303 302 301 299 298 300 301 302 302 302 302 301 300 300 301 302 302 301 301 301 299 298 297 296 295 295
314 309 312 314 309 311 308 310 309 310 313 317 317 316 318 312 310 307 303 302 300 298 298 299 300 301 301 300 300 299 299 299 299 299 299 299 298 297 296 295 295 294 293 293
315 312 309 308 312 308 311 314 319 319 318 319 310 313 317 311 307 306 304 302 300 298 298 298 299 299 299 298 298 298 298 299 298 298 298 297 296 295 295 295 294 293 292 292
320 321 311 309 316 314 311 317 322 324 319 318 309 315 315 307 305 303 304 302 300 297 297 298 299 299 299 298 298 298 298 299 297 296 296 294 294 294 294 293 292 291 291 290
319 319 309 308 308 312 311 313 313 313 307 317 316 313 311 305 304 303 303 301 300 298 297 298 298 299 298 298 297 297 297 296 295 294 294 293 293 292 292 292 291 290 290 289
315 321 309 308 309 309 310 312 315 315 321 322 314 313 316 308 307 303 301 301 300 298 298 297 297 299 299 297 296 295 294 294 293 293 292 292 292 291 291 290 290 289 289 288
312 314 312 308 310 314 311 312 312 315 316 320 318 313 310 310 309 305 303 302 301 299 298 298 299 300 299 296 295 294 293 292 292 292 291 291 291 290 290 289 289 289 288 288
314 314 316 312 308 306 312 313 313 318 314 311 312 316 306 307 307 306 304 302 301 300 299 300 300 300 298 297 294 293 292 291 291 291 290 290 290 290 289 289 289 288 288 288
313 315 320 315 310 307 310 311 313 313 313 317 319 318 305 304 304 304 304 302 301 300 299 299 299 300 299 297 295 293 292 291 291 290 290 290 290 289 289 289 288 288 288 288
313 316 319 323 319 314 312 312 311 313 318 317 315 314 308 307 306 304 303 302 301 301 300 299 298 299 299 298 297 295 293 291 290 290 289 289 289 289 289 289 288 288 288 288
312 316 316 317 309 312 314 313 312 313 314 317 317 313 310 309 307 306 305 303 302 301 299 299 299 299 299 298 298 296 294 292 290 289 289 289 289 289 289 289 288 288 288 288
308 316 315 315 308 307 310 312 312 312 313 314 313 312 310 308 306 305 304 302 302 302 302 301 300 300 300 300 299 297 296 293 290 289 289 289 289 289 289 289 288 288 288 288
310 313 312 317 311 306 310 310 311 311 312 313 313 313 306 304 305 305 304 303 304 302 302 302 301 300 299 298 297 297 296 294 290 289 289 289 289 289 289 288 288 288 287 287
310 312 312 306 304 313 310 298 307 309 309 307 304 305 306 305 304 304 305 305 303 303 302 300 298 297 295 294 294 296 295 294 290 289 289 289 289 289 289 288 288 287 287 287
299 307 302 306 308 310 299 296 303 307 309 305 306 302 298 297 297 297 301 302 303 302 298 297 294 293 292 292 293 294 294 292 290 290 290 290 290 289 288 288 287 287 286 286
299 301 310 302 312 314 306 294 293 298 305 300 303 299 294 294 302 302 297 296 296 295 293 292 292 292 292 292 293 294 293 292 291 290 290 289 289 288 288 287 287 286 285 285
302 302 307 305 309 306 300 293 293 304 308 294 300 297 293 297 300 297 295 295 293 292 292 292 292 292 292 292 292 292 291 290 290 290 289 289 289 288 288 287 286 285 285 284
304 305 306 302 307 309 292 291 299 298 292 295 294 297 296 295 294 294 294 292 292 292 292 291 291 291 291 291 291 290 290 290 290 290 289 289 288 288 287 286 285 285 284 284
303 303 305 305 306 293 292 293 294 294 295 293 295 295 295 293 293 293 292 292 292 291 291 291 291 291 291 291 290 290 290 290 290 289 289 288 288 287 286 285 284 283 283 284
292 290 296 299 294 292 292 294 294 294 295 295 295 295 294 294 293 292 291 291 291 291 291 291 291 291 290 290 290 290 290 290 289 289 288 288 287 286 285 284 283 283 283 282
294 292 292 292 290 291 291 292 294 294 294 293 293 293 293 293 292 292 291 291 291 291 291 291 291 291 290 290 290 290 290 289 289 288 288 287 286 285 284 283 283 283 282 281
291 291 293 296 293 295 295 297 295 293 293 292 293 292 291 291 291 291 291 291 291 291 291 291 290 290 290 290 290 289 290 289 289 288 287 286 285 284 283 282 282 282 281 279
Wind_Speed
5 8 13 19 17 5 2 4 7 3 2 4 11 13 8 5 5 6 6 7 7 9 12 13 14 15 16 18 20 22 22 23 22 19 16 16 13 10 6 4 5 3 2 3
4 14 15 2 9 9 7 9 13 4 3 4 9 14 8 7 5 6 8 9 9 11 15 19 20 21 21 21 21 21 21 20 19 18 18 17 18 18 16 12 9 7 4 3
13 2 11 9 8 11 12 14 11 9 3 4 5 14 11 5 6 9 9 11 11 13 19 22 26 28 28 28 28 27 26 24 23 22 20 19 16 15 13 12 9 8 7 7
9 5 7 10 12 12 15 13 9 7 5 9 3 6 5 8 10 12 14 14 15 16 19 22 25 27 27 27 26 23 21 20 18 16 15 13 14 13 13 11 11 9 8 8
6 10 11 11 8 13 6 6 10 7 11 5 8 6 3 6 12 13 19 19 18 17 18 21 23 25 25 24 22 20 18 18 17 16 13 11 11 13 13 11 9 7 6 6
5 1 5 5 3 8 14 9 5 3 3 8 15 13 8 7 10 17 23 23 23 22 22 23 23 23 23 22 20 18 16 16 15 12 10 9 11 11 10 9 6 5 5 6
6 8 4 4 5 2 6 10 4 5 6 7 3 9 12 6 8 17 29 31 27 25 26 25 23 22 21 20 17 14 12 12 11 9 8 10 11 11 7 4 3 3 4 5
11 8 15 14 18 10 16 18 7 7 6 3 2 8 5 2 7 4 25 29 28 28 29 28 26 23 21 19 16 12 11 9 10 10 11 12 11 8 6 5 4 3 5 7
10 7 3 6 4 12 10 11 4 5 1 2 6 5 6 6 6 9 21 28 30 29 32 31 28 24 22 19 15 13 13 13 14 14 11 10 8 5 3 3 4 4 6 7
5 4 1 4 4 0 6 12 5 5 5 6 4 5 8 10 14 10 17 27 30 31 33 32 30 26 23 20 17 16 15 14 14 13 11 8 5 2 1 2 3 5 7 9
4 3 4 4 12 17 6 7 5 3 4 4 3 5 5 10 17 19 25 31 34 33 35 35 32 28 25 22 20 18 17 16 15 14 11 8 6 4 1 2 4 7 10 12
11 2 7 14 0 2 11 8 15 7 6 4 2 5 4 4 11 21 23 28 30 33 37 37 35 31 29 26 23 21 19 18 17 15 13 10 8 5 4 4 6 8 11 14
13 5 3 3 5 4 9 11 13 6 2 11 7 4 4 3 7 16 19 24 29 33 35 36 36 35 32 29 25 23 21 20 19 18 15 13 10 8 7 8 9 10 13 15
26 10 15 18 6 12 12 17 15 13 9 12 17 8 8 10 11 14 18 22 27 35 37 37 36 37 34 30 27 23 22 23 23 20 18 15 12 11 12 12 13 14 16 17
14 14 21 25 7 7 8 20 22 23 29 17 17 17 17 17 16 22 24 23 26 30 32 36 38 37 35 32 29 26 25 26 26 24 21 17 15 15 16 16 18 19 19 19
6 12 20 21 10 9 8 17 27 29 25 22 11 14 13 22 14 15 21 24 27 32 36 37 36 34 32 30 30 29 29 29 28 26 23 20 19 20 20 22 23 23 22 21
13 15 8 21 13 4 7 27 21 21 18 22 19 15 9 7 14 21 20 24 30 30 32 33 30 26 24 24 25 29 30 29 28 27 24 23 24 25 25 25 26 26 25 23
8 18 6 3 6 10 7 0 15 18 15 14 2 6 16 13 19 20 21 27 25 26 27 25 21 19 19 19 21 22 25 27 27 26 26 26 27 28 28 27 27 27 27 25
1 5 4 5 7 3 1 4 8 14 16 12 15 6 7 11 11 8 20 19 22 25 20 18 17 16 17 19 20 21 24 25 26 26 25 27 28 28 29 29 28 28 27 26
2 3 6 3 6 9 1 3 4 3 6 10 16 10 12 14 7 6 20 20 19 19 18 17 16 16 17 19 20 21 22 23 22 22 24 26 26 26 28 29 28 28 27 28
5 3 6 5 4 4 3 6 9 7 4 5 18 18 22 7 7 8 21 23 20 18 15 13 12 13 14 18 20 21 20 20 20 21 24 27 28 28 29 29 28 27 28 29
9 9 4 3 3 9 11 6 8 3 5 11 16 21 25 15 14 19 25 24 20 16 12 10 10 14 17 20 22 22 20 19 21 25 28 30 31 30 30 28 27 27 28 29
4 1 4 7 3 2 20 5 8 12 20 14 19 20 20 21 20 22 22 20 16 13 11 11 15 19 19 22 25 26 23 23 24 28 31 32 30 29 28 27 27 28 28 30
3 3 2 2 3 3 15 7 15 14 16 18 17 16 17 17 17 22 22 20 17 14 14 16 20 24 23 24 28 30 28 27 29 29 29 29 28 27 27 27 27 28 29 29
2 8 5 1 2 3 7 18 19 17 17 17 17 15 17 17 18 18 24 23 17 15 16 20 22 28 27 26 29 29 29 29 29 27 27 27 27 27 27 27 27 28 28 28
7 6 5 3 13 10 15 28 30 26 23 16 14 14 15 17 17 19 21 25 24 18 18 21 24 26 30 28 28 28 28 28 27 26 26 26 26 27 27 27 28 28 28 28
Wind_Direction
161 205 215 215 214 233 177 210 238 173 145 229 243 254 199 191 173 172 166 150 135 130 123 126 127 122 117 114 112 113 113 114 118 121 126 129 129 118 118 106 94 81 40 347
160 229 228 192 193 197 216 237 243 267 193 233 253 256 238 198 205 199 176 159 150 132 126 124 124 124 122 122 121 118 116 118 121 121 121 118 113 111 106 99 98 86 69 52
213 184 190 167 170 200 225 225 233 255 159 231 272 265 221 189 180 170 176 162 153 143 134 127 123 122 121 119 116 112 110 110 108 106 107 110 112 108 104 98 87 73 52 37
238 172 154 189 211 200 235 216 223 212 220 257 218 280 207 181 184 190 182 176 167 157 145 136 128 123 120 117 114 112 110 110 110 114 117 117 119 121 108 95 78 57 45 32
200 176 189 204 206 187 255 156 201 204 225 259 199 257 193 173 207 195 188 181 175 166 157 145 136 131 129 125 122 116 112 110 110 113 116 118 119 113 99 88 78 64 44 31
264 161 196 214 96 185 134 108 78 94 191 248 227 217 203 198 215 183 188 185 179 174 167 158 148 141 138 135 130 121 116 113 114 118 118 119 113 103 93 82 62 45 30 20
211 218 173 170 131 111 185 160 194 221 208 245 154 207 250 197 183 191 183 184 181 178 174 168 160 152 148 143 138 129 122 114 118 125 132 142 134 123 109 81 67 54 38 19
203 231 188 193 214 187 196 190 191 213 205 183 134 225 233 96 136 160 187 179 177 180 181 176 170 164 161 158 155 152 150 143 150 155 154 151 147 139 122 112 85 43 16 3
191 239 187 192 152 172 186 214 176 107 1 233 203 235 237 155 169 168 176 179 183 183 185 181 179 176 175 172 170 173 174 172 165 165 164 163 159 138 107 76 44 7 351 349
194 253 213 162 137 110 210 152 182 227 211 234 214 248 222 201 197 183 182 188 187 188 188 188 187 185 183 184 187 187 184 181 175 173 174 177 178 174 121 35 10 346 339 340
132 210 144 143 208 189 162 190 206 203 203 225 243 233 212 193 186 186 194 194 190 190 191 191 191 192 194 195 197 198 196 191 190 189 190 196 203 208 251 323 329 329 330 331
187 174 200 203 154 269 233 220 193 204 189 239 284 247 162 190 188 189 189 192 193 194 195 196 197 199 200 203 205 207 202 199 199 201 204 208 222 234 251 283 305 314 318 322
170 191 193 237 222 191 214 204 215 226 62 203 192 208 169 185 214 198 184 186 190 195 197 201 204 207 208 210 211 212 211 209 211 211 213 219 228 241 261 277 291 301 311 317
165 178 206 225 234 160 209 205 204 196 225 209 230 207 199 192 198 193 187 190 191 196 200 204 208 212 215 218 221 220 219 218 218 218 220 228 237 251 263 274 280 293 303 309
184 222 219 237 238 203 210 199 196 208 222 210 231 219 195 189 195 197 195 189 188 197 201 207 211 215 219 224 227 228 227 226 224 222 225 231 241 254 265 271 279 283 290 298
200 226 224 236 218 217 218 212 207 213 219 234 230 226 189 195 184 184 193 187 195 202 207 210 214 218 222 229 235 235 232 229 226 226 229 236 246 256 267 271 275 276 279 287
186 205 194 228 208 218 266 224 205 210 214 217 219 230 150 180 191 198 191 196 204 204 206 208 212 214 229 235 237 237 233 230 228 228 233 241 251 259 266 272 274 272 273 282
196 208 205 169 133 215 256 32 205 206 197 209 211 168 174 188 194 201 202 201 199 203 198 198 213 216 218 227 235 238 231 228 228 230 236 245 255 262 267 270 271 269 272 282
42 168 151 178 215 356 284 197 186 182 227 202 210 153 154 150 149 189 197 195 200 198 201 200 204 214 226 232 236 236 222 220 225 233 243 251 258 263 266 268 268 270 275 283
153 340 225 166 207 217 193 174 165 116 263 196 191 158 152 148 180 203 190 188 181 178 186 196 211 221 226 230 227 222 217 222 232 239 254 257 257 264 267 269 271 274 279 285
156 181 214 197 220 278 172 169 164 161 260 148 182 168 160 189 203 196 180 177 179 184 189 200 218 234 231 221 220 218 218 226 251 259 258 254 256 260 265 267 271 276 280 285
176 167 184 149 217 249 149 120 184 135 104 160 177 187 188 189 169 164 167 172 179 185 192 208 230 240 228 223 219 214 229 256 260 261 259 257 257 258 263 268 272 276 280 287
219 217 187 200 196 27 163 82 189 156 153 162 165 179 183 182 174 175 179 182 185 195 206 225 244 237 228 226 221 226 245 257 264 265 260 256 255 259 265 269 272 276 281 287
214 195 213 180 87 100 190 174 182 175 171 168 173 183 192 202 201 197 191 188 200 212 222 231 239 232 227 233 236 239 247 259 266 264 258 253 255 261 265 268 271 275 281 284
138 155 152 79 85 111 202 200 190 189 189 185 187 197 208 211 215 219 210 206 216 225 227 232 237 229 229 232 240 246 252 259 263 259 252 250 255 260 263 267 271 276 279 280
187 159 175 189 187 181 202 219 209 210 206 199 204 217 222 225 229 230 228 226 236 241 239 237 237 235 232 238 244 244 251 258 257 250 248 253 257 259 263 267 272 275 278 277